Regional Weather Roundup
Issued by NWS

Home | Current Version | Previous Version | Graphics & Text | Print | Product List | Glossary On
Versions: 1 2 3 4 5 6 7 8 9 10 11 12 13 14 15 16 17 18 19 20 21 22 23 24 25 26 27 28 29 30 31 32 33 34 35 36 37 38 39 40 41 42 43 44 45 46 47 48 49 50
000
ASUS43 KIND 011909
RWRIN

WEATHER ROUNDUP FOR INDIANA
NATIONAL WEATHER SERVICE INDIANAPOLIS IN
200 PM EST SUN MAR 01 2015

NOTE: "FAIR" INDICATES FEW OR NO CLOUDS BELOW 12,000 FEET WITH NO
SIGNIFICANT WEATHER AND/OR OBSTRUCTIONS TO VISIBILITY.

* - STATION DOES NOT REPORT WEATHER SUCH AS PRECIPITATION OR FOG.

+ - STATION NOT QUALITY CONTROLLED BY THE NATIONAL WEATHER SERVICE.
    USE DATA WITH CAUTION...ESPECIALLY DEWPOINT AND RELATIVE
    HUMIDITY OBSERVATIONS.

INZ001>003-010>013-019-020-012000-
NORTHWEST INDIANA

CITY           SKY/WX    TMP DP  RH WIND       PRES   REMARKS
GARY /AIRPORT/ LGT SNOW  25  18  74 W6        30.34F WCI  18
KNOX *+          N/A     23  12  63 CALM      30.31F
LA PORTE +     LGT SNOW  25  19  79 W3        30.31F VSB 1
MICHIGAN CITY+ LGT SNOW  23  14  68 CALM      30.32F
MONTICELLO +   CLOUDY    24  21  88 NW5       30.31F FOG     WCI  18
RENSSELAER +   CLOUDY    27  23  86 W3        30.32F
VALPARAISO     LGT SNOW  22  18  85 S6        30.31F FOG     WCI  14

$$

LMZ046-743>745-012000-
SOUTHERN LAKE MICHIGAN

STATION/POSITION TIME  TEMP WIND        PRES
                       AIR  DIR/SP/G
                 (UTC) (F)  (DEG/KT/KT) (MB)
MICHIGAN CITY    1900   25  290/  1/  2   N/A

$$

INZ004-005-014>016-021>024-012000-
NORTH CENTRAL INDIANA

CITY           SKY/WX    TMP DP  RH WIND       PRES   REMARKS
ELKHART        LGT SNOW  23  16  74 CALM      30.31F
GOSHEN         LGT SNOW  21  19  92 NW3       30.29F FOG
LOGANSPORT +   LGT SNOW  25  23  93 CALM      30.31F
PERU/GRISSOM   LGT SNOW  25  21  86 SW3       30.29F FOG
ROCHESTER +    LGT SNOW  30  25  80 CALM      30.30F
SOUTH BEND     LGT SNOW  24  18  77 CALM      30.31F
WARSAW +       LGT SNOW  25  19  80 CALM      30.29F

$$

INZ006>009-017-018-025>027-012000-
NORTHEAST INDIANA

CITY           SKY/WX    TMP DP  RH WIND       PRES   REMARKS
ANGOLA *+      CLOUDY    21  18  86 NW5       30.27F WCI  15
FORT WAYNE     SNOW      23  20  88 CALM      30.30F VSB 1/2
HUNTINGTON +   LGT SNOW  25  19  77 CALM      30.29F

$$

INZ028-029-035-036-043>045-051>053-012000-
WEST CENTRAL INDIANA

CITY           SKY/WX    TMP DP  RH WIND       PRES   REMARKS
CRAWFORDSVL +  SNOW      26  20  80 NW5       30.30F VSB 1/2 WCI  20
GREENCASTLE +  LGT SNOW  30  25  80 CALM      30.29F
LAFAYETTE      LGT SNOW  25  21  85 N5        30.32F FOG     WCI  19
TERRE HAUTE    LGT SNOW  30  27  88 CALM      30.32F FOG

$$

INZ030>032-037>040-046>048-054>057-064-065-012000-
CENTRAL INDIANA

CITY           SKY/WX    TMP DP  RH WIND       PRES   REMARKS
CP ATTERBURY + CLOUDY    32  30  93 N6        30.31S FOG     WCI  26
COLUMBUS       CLOUDY    30  28  93 CALM      30.30F
FRANKFORT +    LGT SNOW  28  24  86 NW3       30.32F
GREENWOOD *+   CLOUDY    30  27  86 NW3       30.29F
INDIANAPOLIS   LGT SNOW  30  26  85 CALM      30.28F FOG
-EAGLE CREEK   LGT SNOW  28  26  92 CALM      30.28F VSB 3/4
KOKOMO *+        N/A     27  23  86 NW5       30.30F WCI  21
MARION +       LGT RAIN  25  21  86 NW3       30.30F
MT COMFORT *+  CLOUDY    30  25  80 N3        30.29F
SHELBYVILLE    CLOUDY    33  28  81 N5        30.29S HAZE    WCI  29
ZIONSVILLE +   LGT SNOW  28  24  83 CALM      30.29F VSB 3/4

$$

INZ033-034-041-042-049-050-058-059-012000-
EAST CENTRAL INDIANA

CITY           SKY/WX    TMP DP  RH WIND       PRES   REMARKS
MUNCIE         LGT SNOW  28  24  85 CALM      30.27F FOG

$$

INZ060-061-067>069-081>083-085>088-012000-
SOUTHWEST INDIANA

CITY           SKY/WX    TMP DP  RH WIND       PRES   REMARKS
EVANSVILLE     CLOUDY    36  29  75 W6        30.34F
HUNTINGBURG *+ PTSUNNY   34  30  86 NW6       30.33F WCI  29
WASHINGTON +   CLOUDY    32  29  88 N3        30.31F FOG

$$

INZ062-063-066-070>080-084-089>092-012000-
SOUTH CENTRAL AND SOUTHEAST INDIANA

CITY           SKY/WX    TMP DP  RH WIND       PRES   REMARKS
BLOOMINGTON    MIX PCPN  32  30  92 W5        30.29F FOG     WCI  27
NORTH VERNON + CLOUDY    34  34 100 CALM      30.29F FOG
SEYMOUR +      CLOUDY    34  32  93 CALM      30.30F FOG

$$



USA.gov is the U.S. government's official web portal to all federal, state and local government web resources and services.